Flag for Germany Past Weather in Frankenthal (Pfalz), Rhineland-Palatinate, Germany — Yesterday and Last 2 Weeks

Now
75 °F

Passing clouds.


Feels Like: 78 °F
Forecast: 55 / 76 °F
Wind: 5 mph from East

Location: Mannheim City

Current Time: May 26, 2016 at 6:28:48 PM

Latest Report: May 26, 2016 at 5:50 PM


Visibility: N/A

Pressure: 29.95 "Hg

Humidity: 41%

Dew Point: 50 °F

Location of Frankenthal (Pfalz)Location

Past Weather in Frankenthal (Pfalz) — Graph

°F

Frankenthal (Pfalz) Temperature Yesterday

Maximum temperature yesterday: 61 °F (at 4:20 PM)
Minimum temperature yesterday: 50 °F (at 5:50 AM)
Average temperature yesterday: 57 °F

High & Low Weather Summary for the Past Weeks

 TemperatureHumidityPressure
High81 °F (May 22, 2:50 PM)100% (May 12, 4:20 PM)30.15 "Hg (May 12, 4:20 PM)
Low45 °F (May 17, 5:50 AM)28% (May 22, 4:20 PM)29.45 "Hg (May 12, 7:50 PM)
Average60 °F67%29.91 "Hg
* Reported May 11 4:20 PM — May 26 4:50 PM, Frankenthal (Pfalz), Weather by CustomWeather, © 2016

Note: Actual official high and low records may vary slightly from our data, if they occured in-between our weather recording intervals... More about our weather records

Advertising

Frankenthal (Pfalz) Weather History for the Previous 24 Hours

Scroll right to see more
 ConditionsComfort  
Time TempWeatherWind HumidityBarometerVisibility
4:50 PM
Thu, May 26
75 °FSunny.3 mph36%29.95 "Hg10 mi
4:20 PM75 °FSunny.2 mph39%29.98 "Hg10 mi
3:50 PM75 °FSunny.5 mph41%29.98 "Hg10 mi
3:20 PM73 °FSunny.2 mph41%29.98 "Hg10 mi
2:50 PM73 °FSunny.3 mph44%29.98 "Hg10 mi
2:20 PM72 °FSunny.3 mph44%29.98 "Hg10 mi
1:50 PM72 °FPassing clouds.3 mph47%30.01 "HgN/A
1:20 PM72 °FSunny.2 mph50%30.01 "Hg10 mi
12:50 PM70 °FPassing clouds.5 mph57%30.01 "HgN/A
12:20 PM68 °FSunny.3 mph56%30.01 "Hg10 mi
11:50 AM68 °FSunny.2 mph60%30.01 "Hg10 mi
11:20 AM66 °FSunny.2 mph64%30.01 "Hg10 mi
10:50 AM64 °FSunny.3 mph64%30.01 "Hg10 mi
10:20 AM63 °FSunny.3 mph68%30.01 "Hg10 mi
9:50 AM61 °FSunny.2 mph72%30.04 "Hg10 mi
9:20 AM59 °FSunny.3 mph77%30.04 "Hg10 mi
8:50 AM57 °FSunny.3 mph88%30.04 "Hg10 mi
8:20 AM54 °FSunny.3 mph94%30.04 "Hg10 mi
7:50 AM52 °FPassing clouds.5 mph100%30.01 "HgN/A
7:20 AM52 °FClear.3 mph94%30.01 "Hg6 mi
6:50 AM50 °FClear.2 mph100%30.01 "Hg5 mi
11:50 PM
Wed, May 25
54 °FClear.2 mph100%30.01 "Hg10 mi
11:20 PM54 °FClear.3 mph94%30.01 "Hg10 mi
10:50 PM54 °FClear.3 mph94%30.01 "Hg10 mi
10:20 PM54 °FClear.3 mph94%30.01 "Hg10 mi
9:50 PM55 °FSunny.3 mph88%29.98 "Hg10 mi
9:20 PM57 °FSunny.3 mph77%29.98 "Hg10 mi
8:50 PM59 °FSunny.5 mph72%29.98 "Hg10 mi
8:20 PM61 °FSunny.3 mph68%29.98 "Hg10 mi
7:50 PM61 °FSunny.5 mph68%29.98 "Hg10 mi
7:20 PM61 °FPassing clouds.6 mph68%29.98 "HgN/A
6:50 PM61 °FPassing clouds.6 mph63%29.98 "HgN/A
6:20 PM61 °FPassing clouds.3 mph63%29.98 "HgN/A
Weather by CustomWeather, © 2016

See weather overviewHow to use our weather pages